Time,TemperatureF,DewpointF,PressureIn,WindDirection,WindDirectionDegrees,WindSpeedMPH,WindSpeedGustMPH,Humidity,HourlyPrecipIn,Conditions,Clouds,dailyrainin,SoftwareType,DateUTC
2013-02-26 00:02:00,31.0,29.0,29.76,North,360,5.0,16.0,92,0.03,,,0.19,,2013-02-26 06:02:00,
2013-02-26 00:11:00,31.0,29.0,29.76,North,360,5.0,16.0,92,0.03,,,0.19,,2013-02-26 06:11:00,
2013-02-26 00:21:00,31.0,29.0,29.75,North,9,6.0,14.0,92,0.01,,,0.19,,2013-02-26 06:21:00,
2013-02-26 00:32:00,31.0,29.0,29.74,ENE,57,4.0,15.0,92,0.00,,,0.19,,2013-02-26 06:32:00,
2013-02-26 00:41:00,31.0,29.0,29.74,ENE,57,4.0,15.0,92,0.00,,,0.19,,2013-02-26 06:41:00,
2013-02-26 00:51:00,31.0,29.0,29.75,NNW,341,4.0,15.0,92,0.01,,,0.20,,2013-02-26 06:51:00,
2013-02-26 01:01:00,31.0,29.0,29.74,North,360,4.0,11.0,92,0.02,,,0.21,,2013-02-26 07:01:00,
2013-02-26 01:11:00,31.0,29.0,29.74,North,360,4.0,11.0,92,0.02,,,0.21,,2013-02-26 07:11:00,
2013-02-26 01:22:00,30.0,28.0,29.72,NE,37,4.0,12.0,92,0.04,,,0.23,,2013-02-26 07:22:00,
2013-02-26 01:32:00,30.0,28.0,29.72,North,5,5.0,11.0,92,0.06,,,0.25,,2013-02-26 07:32:00,
2013-02-26 01:42:00,30.0,28.0,29.72,North,5,5.0,11.0,92,0.06,,,0.25,,2013-02-26 07:42:00,
2013-02-26 01:51:00,30.0,28.0,29.72,North,11,4.0,10.0,92,0.07,,,0.27,,2013-02-26 07:51:00,
2013-02-26 02:02:00,30.0,28.0,29.72,NNE,14,3.0,9.0,93,0.08,,,0.28,,2013-02-26 08:02:00,
2013-02-26 02:11:00,30.0,28.0,29.72,NNE,14,3.0,9.0,93,0.08,,,0.28,,2013-02-26 08:11:00,
2013-02-26 02:21:00,30.0,28.0,29.71,NNE,25,4.0,10.0,93,0.08,,,0.31,,2013-02-26 08:21:00,
2013-02-26 02:31:00,30.0,28.0,29.71,North,10,2.0,9.0,93,0.07,,,0.32,,2013-02-26 08:31:00,
2013-02-26 02:42:00,30.0,28.0,29.71,North,10,2.0,9.0,93,0.07,,,0.32,,2013-02-26 08:42:00,
2013-02-26 02:52:00,30.0,28.0,29.69,NNE,22,5.0,10.0,93,0.07,,,0.34,,2013-02-26 08:52:00,
2013-02-26 03:01:00,30.0,28.0,29.68,NNW,327,4.0,13.0,93,0.06,,,0.35,,2013-02-26 09:01:00,
2013-02-26 03:11:00,30.0,28.0,29.68,NNW,327,4.0,13.0,93,0.06,,,0.35,,2013-02-26 09:11:00,
2013-02-26 03:21:00,30.0,28.0,29.69,North,360,3.0,14.0,93,0.06,,,0.37,,2013-02-26 09:21:00,
2013-02-26 03:31:00,30.0,28.0,29.68,NNW,344,4.0,10.0,93,0.08,,,0.40,,2013-02-26 09:31:00,
2013-02-26 03:43:00,30.0,28.0,29.68,NNW,344,4.0,10.0,93,0.08,,,0.40,,2013-02-26 09:43:00,
2013-02-26 03:51:00,30.0,28.0,29.68,North,360,3.0,9.0,93,0.08,,,0.42,,2013-02-26 09:51:00,
2013-02-26 04:01:00,30.0,28.0,29.68,NW,321,4.0,9.0,93,0.08,,,0.43,,2013-02-26 10:01:00,
2013-02-26 04:11:00,30.0,28.0,29.68,NW,321,4.0,9.0,93,0.08,,,0.43,,2013-02-26 10:11:00,
2013-02-26 04:21:00,29.0,27.0,29.68,NNW,331,0.0,7.0,93,0.10,,,0.47,,2013-02-26 10:21:00,
2013-02-26 04:31:00,29.0,27.0,29.67,NNW,338,0.0,0.0,93,0.12,,,0.52,,2013-02-26 10:31:00,
2013-02-26 04:42:00,29.0,27.0,29.67,NNW,338,0.0,0.0,93,0.12,,,0.52,,2013-02-26 10:42:00,
2013-02-26 04:52:00,29.0,27.0,29.67,North,355,0.0,0.0,94,0.15,,,0.56,,2013-02-26 10:52:00,
2013-02-26 05:01:00,29.0,27.0,29.67,NNW,344,0.0,0.0,94,0.18,,,0.61,,2013-02-26 11:01:00,
2013-02-26 05:12:00,29.0,27.0,29.67,NNW,344,0.0,0.0,94,0.18,,,0.61,,2013-02-26 11:12:00,
2013-02-26 05:21:00,29.0,27.0,29.66,NNW,348,0.0,0.0,94,0.16,,,0.64,,2013-02-26 11:21:00,
2013-02-26 05:32:00,29.0,27.0,29.66,NNW,348,0.0,0.0,94,0.16,,,0.68,,2013-02-26 11:32:00,
2013-02-26 05:42:00,29.0,27.0,29.66,NNW,348,0.0,0.0,94,0.16,,,0.68,,2013-02-26 11:42:00,
2013-02-26 05:52:00,29.0,27.0,29.66,NNW,348,0.0,0.0,94,0.14,,,0.71,,2013-02-26 11:52:00,
2013-02-26 06:01:00,29.0,27.0,29.66,NNW,348,0.0,0.0,94,0.13,,,0.74,,2013-02-26 12:01:00,
2013-02-26 06:11:00,29.0,27.0,29.66,NNW,348,0.0,0.0,94,0.13,,,0.74,,2013-02-26 12:11:00,
2013-02-26 06:22:00,29.0,27.0,29.67,NNW,348,0.0,0.0,94,0.12,,,0.77,,2013-02-26 12:22:00,
2013-02-26 06:32:00,29.0,27.0,29.68,NNW,348,0.0,0.0,94,0.12,,,0.80,,2013-02-26 12:32:00,
2013-02-26 06:42:00,29.0,27.0,29.68,NNW,348,0.0,0.0,94,0.12,,,0.80,,2013-02-26 12:42:00,
2013-02-26 06:52:00,29.0,27.0,29.68,NNW,348,0.0,0.0,94,0.12,,,0.83,,2013-02-26 12:52:00,
2013-02-26 07:01:00,29.0,27.0,29.68,NNW,348,0.0,0.0,94,0.12,,,0.86,,2013-02-26 13:01:00,
2013-02-26 07:11:00,29.0,27.0,29.68,NNW,348,0.0,0.0,94,0.12,,,0.86,,2013-02-26 13:11:00,
2013-02-26 07:21:00,29.0,27.0,29.68,NNW,348,0.0,0.0,94,0.13,,,0.90,,2013-02-26 13:21:00,
2013-02-26 07:32:00,29.0,27.0,29.67,NNW,348,0.0,0.0,94,0.12,,,0.92,,2013-02-26 13:32:00,
2013-02-26 07:42:00,29.0,27.0,29.67,NNW,348,0.0,0.0,94,0.12,,,0.92,,2013-02-26 13:42:00,
2013-02-26 07:51:00,29.0,27.0,29.68,NNW,348,0.0,0.0,94,0.13,,,0.96,,2013-02-26 13:51:00,
2013-02-26 08:01:00,29.0,27.0,29.68,NNW,348,0.0,0.0,94,0.12,,,0.98,,2013-02-26 14:01:00,
2013-02-26 08:11:00,29.0,27.0,29.68,NNW,348,0.0,0.0,94,0.12,,,0.98,,2013-02-26 14:11:00,
2013-02-26 08:21:00,29.0,27.0,29.67,NNW,348,0.0,0.0,94,0.11,,,1.01,,2013-02-26 14:21:00,
2013-02-26 08:32:00,29.0,27.0,29.67,NNW,348,0.0,0.0,94,0.11,,,1.01,,2013-02-26 14:32:00,
2013-02-26 08:42:00,29.0,27.0,29.67,NNW,348,0.0,0.0,94,0.11,,,1.01,,2013-02-26 14:42:00,
2013-02-26 08:52:00,29.0,27.0,29.67,NNW,348,0.0,0.0,94,0.14,,,1.10,,2013-02-26 14:52:00,
2013-02-26 09:02:00,29.0,27.0,29.68,NNW,348,0.0,0.0,94,0.14,,,1.12,,2013-02-26 15:02:00,
2013-02-26 09:11:00,29.0,27.0,29.68,NNW,348,0.0,0.0,94,0.14,,,1.12,,2013-02-26 15:11:00,
2013-02-26 09:21:00,29.0,27.0,29.68,NNW,348,0.0,0.0,94,0.15,,,1.15,,2013-02-26 15:21:00,
2013-02-26 09:32:00,29.0,27.0,29.68,North,349,0.0,0.0,94,0.13,,,1.20,,2013-02-26 15:32:00,
2013-02-26 09:42:00,29.0,27.0,29.68,North,349,0.0,0.0,94,0.13,,,1.20,,2013-02-26 15:42:00,
2013-02-26 09:52:00,29.0,27.0,29.68,North,5,0.0,0.0,94,0.12,,,1.22,,2013-02-26 15:52:00,
2013-02-26 10:01:00,30.0,28.0,29.69,North,355,0.0,0.0,94,0.15,,,1.27,,2013-02-26 16:01:00,
2013-02-26 10:11:00,30.0,28.0,29.69,North,355,0.0,0.0,94,0.15,,,1.27,,2013-02-26 16:11:00,
2013-02-26 10:22:00,30.0,28.0,29.69,North,349,0.0,0.0,94,0.14,,,1.30,,2013-02-26 16:22:00,
2013-02-26 10:32:00,30.0,28.0,29.69,NW,316,3.0,7.0,94,0.12,,,1.32,,2013-02-26 16:32:00,
2013-02-26 10:42:00,30.0,28.0,29.69,NW,316,3.0,7.0,94,0.12,,,1.32,,2013-02-26 16:42:00,
2013-02-26 10:51:00,30.0,28.0,29.70,NNW,347,2.0,7.0,94,0.11,,,1.33,,2013-02-26 16:51:00,
2013-02-26 11:01:00,30.0,28.0,29.70,NNW,333,4.0,11.0,94,0.07,,,1.34,,2013-02-26 17:01:00,
2013-02-26 11:11:00,30.0,28.0,29.70,NNW,333,4.0,11.0,94,0.07,,,1.34,,2013-02-26 17:11:00,
2013-02-26 11:21:00,30.0,28.0,29.70,North,360,4.0,10.0,94,0.04,,,1.34,,2013-02-26 17:21:00,
2013-02-26 11:32:00,30.0,28.0,29.70,North,360,4.0,10.0,94,0.04,,,1.34,,2013-02-26 17:32:00,
2013-02-26 11:41:00,30.0,28.0,29.70,North,360,4.0,10.0,94,0.04,,,1.34,,2013-02-26 17:41:00,
2013-02-26 11:52:00,30.0,28.0,29.71,North,360,3.0,11.0,94,0.02,,,1.35,,2013-02-26 17:52:00,
2013-02-26 12:01:00,30.0,28.0,29.72,North,355,4.0,11.0,94,0.01,,,1.35,,2013-02-26 18:01:00,
2013-02-26 12:12:00,30.0,28.0,29.72,North,355,4.0,11.0,94,0.01,,,1.35,,2013-02-26 18:12:00,
2013-02-26 12:21:00,30.0,28.0,29.73,NNW,338,4.0,10.0,94,0.01,,,1.35,,2013-02-26 18:21:00,
2013-02-26 12:32:00,30.0,28.0,29.73,North,5,5.0,10.0,94,0.00,,,1.35,,2013-02-26 18:32:00,
2013-02-26 12:42:00,30.0,28.0,29.73,North,5,5.0,10.0,94,0.00,,,1.35,,2013-02-26 18:42:00,
2013-02-26 12:52:00,30.0,28.0,29.74,North,5,4.0,7.0,94,0.00,,,1.35,,2013-02-26 18:52:00,
2013-02-26 13:01:00,30.0,28.0,29.74,NNW,327,2.0,9.0,94,0.00,,,1.35,,2013-02-26 19:01:00,
2013-02-26 13:11:00,30.0,28.0,29.74,NNW,327,2.0,9.0,94,0.00,,,1.35,,2013-02-26 19:11:00,
2013-02-26 13:22:00,30.0,28.0,29.73,North,5,4.0,9.0,94,0.00,,,1.35,,2013-02-26 19:22:00,
2013-02-26 13:32:00,30.0,28.0,29.74,North,355,3.0,8.0,94,0.00,,,1.35,,2013-02-26 19:32:00,
2013-02-26 13:41:00,30.0,28.0,29.74,North,355,3.0,8.0,94,0.00,,,1.35,,2013-02-26 19:41:00,
2013-02-26 13:52:00,31.0,29.0,29.74,NNW,347,6.0,14.0,94,0.01,,,1.36,,2013-02-26 19:52:00,
2013-02-26 14:01:00,31.0,29.0,29.73,NNW,345,4.0,13.0,94,0.01,,,1.36,,2013-02-26 20:01:00,
2013-02-26 14:11:00,31.0,29.0,29.73,NNW,345,4.0,13.0,94,0.01,,,1.36,,2013-02-26 20:11:00,
2013-02-26 14:21:00,31.0,29.0,29.73,NE,46,6.0,16.0,94,0.02,,,1.37,,2013-02-26 20:21:00,
2013-02-26 14:32:00,31.0,29.0,29.73,NNW,336,6.0,20.0,94,0.02,,,1.37,,2013-02-26 20:32:00,
2013-02-26 14:41:00,31.0,29.0,29.73,NNW,336,6.0,20.0,94,0.02,,,1.37,,2013-02-26 20:41:00,
2013-02-26 14:51:00,31.0,29.0,29.74,NW,304,7.0,16.0,94,0.01,,,1.37,,2013-02-26 20:51:00,
2013-02-26 15:01:00,31.0,29.0,29.75,North,360,7.0,16.0,94,0.01,,,1.37,,2013-02-26 21:01:00,
2013-02-26 15:11:00,31.0,29.0,29.75,North,360,7.0,16.0,94,0.01,,,1.37,,2013-02-26 21:11:00,
2013-02-26 15:21:00,30.0,28.0,29.75,NNW,347,4.0,12.0,94,0.00,,,1.37,,2013-02-26 21:21:00,
2013-02-26 15:31:00,30.0,28.0,29.76,NNE,12,6.0,17.0,94,0.00,,,1.37,,2013-02-26 21:31:00,
2013-02-26 15:41:00,30.0,28.0,29.76,NNE,12,6.0,17.0,94,0.00,,,1.37,,2013-02-26 21:41:00,
2013-02-26 15:51:00,30.0,28.0,29.77,NNW,334,6.0,14.0,94,0.00,,,1.37,,2013-02-26 21:51:00,
2013-02-26 16:01:00,30.0,28.0,29.77,NNW,333,6.0,18.0,94,0.00,,,1.37,,2013-02-26 22:01:00,
2013-02-26 16:11:00,30.0,28.0,29.78,NW,306,4.0,12.0,94,0.00,,,1.37,,2013-02-26 22:11:00,
2013-02-26 16:21:00,30.0,28.0,29.78,NW,306,4.0,12.0,94,0.00,,,1.37,,2013-02-26 22:21:00,
2013-02-26 16:31:00,30.0,28.0,29.79,NNW,342,4.0,11.0,93,0.00,,,1.37,,2013-02-26 22:31:00,
2013-02-26 16:41:00,30.0,28.0,29.79,NNW,342,4.0,11.0,93,0.00,,,1.37,,2013-02-26 22:41:00,
2013-02-26 16:51:00,30.0,28.0,29.80,North,355,6.0,12.0,93,0.00,,,1.37,,2013-02-26 22:51:00,
2013-02-26 17:01:00,30.0,28.0,29.80,North,355,6.0,12.0,93,0.00,,,1.37,,2013-02-26 23:01:00,
2013-02-26 17:11:00,30.0,28.0,29.80,North,355,6.0,12.0,93,0.00,,,1.37,,2013-02-26 23:11:00,
2013-02-26 17:21:00,30.0,28.0,29.80,NNW,338,6.0,14.0,93,0.00,,,1.37,,2013-02-26 23:21:00,
2013-02-26 17:31:00,30.0,28.0,29.81,NNW,345,4.0,13.0,93,0.01,,,1.32,,2013-02-26 23:31:00,
2013-02-26 17:41:00,30.0,28.0,29.81,NNW,345,4.0,13.0,93,0.01,,,1.32,,2013-02-26 23:41:00,
2013-02-26 17:52:00,30.0,28.0,29.82,NNW,345,5.0,14.0,93,0.01,,,1.32,,2013-02-26 23:52:00,
2013-02-26 18:01:00,29.0,27.0,29.83,NNW,336,5.0,16.0,92,0.01,,,1.32,,2013-02-27 00:01:00,
2013-02-26 18:11:00,29.0,27.0,29.83,NNW,336,5.0,16.0,92,0.01,,,1.32,,2013-02-27 00:11:00,
2013-02-26 18:21:00,29.0,27.0,29.83,North,9,2.0,15.0,92,0.01,,,1.32,,2013-02-27 00:21:00,
2013-02-26 18:31:00,29.0,27.0,29.83,NNW,342,4.0,9.0,93,0.00,,,1.31,,2013-02-27 00:31:00,
2013-02-26 18:41:00,29.0,27.0,29.83,NNW,342,4.0,9.0,93,0.00,,,1.31,,2013-02-27 00:41:00,
2013-02-26 18:51:00,29.0,27.0,29.84,NW,307,4.0,11.0,93,0.00,,,1.31,,2013-02-27 00:51:00,
2013-02-26 19:01:00,29.0,27.0,29.85,NW,326,3.0,10.0,93,0.00,,,1.31,,2013-02-27 01:01:00,
2013-02-26 19:11:00,29.0,27.0,29.85,NW,326,3.0,10.0,93,0.00,,,1.31,,2013-02-27 01:11:00,
2013-02-26 19:21:00,29.0,27.0,29.86,NNW,333,2.0,8.0,92,0.00,,,1.31,,2013-02-27 01:21:00,
2013-02-26 19:32:00,29.0,27.0,29.87,NNW,348,4.0,9.0,92,0.00,,,1.31,,2013-02-27 01:32:00,
2013-02-26 19:42:00,29.0,27.0,29.87,NNW,348,4.0,9.0,92,0.00,,,1.31,,2013-02-27 01:42:00,
2013-02-26 19:51:00,29.0,27.0,29.88,NW,326,1.0,6.0,92,0.00,,,1.31,,2013-02-27 01:51:00,
2013-02-26 20:01:00,29.0,27.0,29.88,NW,323,1.0,7.0,92,0.00,,,1.31,,2013-02-27 02:01:00,
2013-02-26 20:14:00,29.0,27.0,29.88,NW,323,1.0,7.0,92,0.00,,,1.31,,2013-02-27 02:14:00,
2013-02-26 20:23:00,29.0,27.0,29.90,NW,310,0.0,8.0,92,0.00,,,1.31,,2013-02-27 02:23:00,
2013-02-26 20:32:00,29.0,27.0,29.90,NNW,333,2.0,8.0,92,0.00,,,1.31,,2013-02-27 02:32:00,
2013-02-26 20:42:00,29.0,27.0,29.90,NNW,333,2.0,8.0,92,0.00,,,1.31,,2013-02-27 02:42:00,
2013-02-26 20:52:00,29.0,27.0,29.91,WNW,302,2.0,7.0,92,0.00,,,1.31,,2013-02-27 02:52:00,
2013-02-26 21:02:00,29.0,27.0,29.92,NW,313,3.0,9.0,92,0.00,,,1.31,,2013-02-27 03:02:00,
2013-02-26 21:11:00,29.0,27.0,29.92,NW,313,3.0,9.0,92,0.00,,,1.31,,2013-02-27 03:11:00,
2013-02-26 21:22:00,29.0,27.0,29.93,NW,306,2.0,9.0,92,0.01,,,1.32,,2013-02-27 03:22:00,
2013-02-26 21:32:00,29.0,27.0,29.93,NW,306,2.0,9.0,92,0.01,,,1.32,,2013-02-27 03:32:00,
2013-02-26 21:42:00,29.0,27.0,29.93,NW,306,2.0,9.0,92,0.01,,,1.32,,2013-02-27 03:42:00,
2013-02-26 21:51:00,29.0,27.0,29.94,WNW,286,3.0,9.0,92,0.01,,,1.29,,2013-02-27 03:51:00,
2013-02-26 22:01:00,29.0,27.0,29.95,NW,321,2.0,9.0,92,0.01,,,1.29,,2013-02-27 04:01:00,
2013-02-26 22:11:00,29.0,27.0,29.95,NW,321,2.0,9.0,92,0.01,,,1.29,,2013-02-27 04:11:00,
2013-02-26 22:21:00,29.0,27.0,29.95,NW,313,4.0,11.0,92,0.01,,,1.30,,2013-02-27 04:21:00,
2013-02-26 22:32:00,28.0,26.0,29.95,WNW,300,3.0,10.0,92,0.01,,,1.26,,2013-02-27 04:32:00,
2013-02-26 22:41:00,28.0,26.0,29.95,WNW,300,3.0,10.0,92,0.01,,,1.26,,2013-02-27 04:41:00,
2013-02-26 22:51:00,28.0,26.0,29.95,WNW,300,3.0,13.0,92,0.01,,,1.26,,2013-02-27 04:51:00,
2013-02-26 23:01:00,28.0,26.0,29.95,West,266,5.0,15.0,92,0.02,,,1.27,,2013-02-27 05:01:00,
2013-02-26 23:11:00,28.0,26.0,29.95,West,266,5.0,15.0,92,0.02,,,1.27,,2013-02-27 05:11:00,
2013-02-26 23:22:00,28.0,26.0,29.95,NW,310,4.0,8.0,92,0.01,,,1.27,,2013-02-27 05:22:00,
2013-02-26 23:32:00,28.0,26.0,29.95,NW,312,3.0,12.0,92,0.01,,,1.23,,2013-02-27 05:32:00,
2013-02-26 23:42:00,28.0,26.0,29.95,NW,312,3.0,12.0,92,0.01,,,1.23,,2013-02-27 05:42:00,
2013-02-26 23:52:00,28.0,26.0,29.95,NW,307,3.0,11.0,92,0.01,,,1.23,,2013-02-27 05:52:00,